USA 40 R/B DEB, 23360

Orbit data source: Space-Track

USA 40 R/B DEB, 23360 is space debris originally from a launch on Tue, 08 Aug 1989 UTC launched from the Air Force Eastern Test Range (AFETR). Debris objects in space refer to the collection of defunct objects orbiting the Earth. Examples of debris include non-operational satellites, rocket bodies, and fragments generated from explosions, collisions, or faulty payload assembly.

Loading next visibility...
Identifier
23360, 1989-061AG
Orbit
Active
Country
Flag of USUS
Related business
Manufacturer
Unknown
Mission
Spacecraft
Bus & Motor
Unknown
Mass
Unknown
Launch date (UTC)
1989-08-08 (37 years ago)
Launch vehicle
Unknown
Launch site
Air Force Eastern Test Range (AFETR)
Object type
Payload
Rocket body
Debris
Shape & HBR
Unknown shape, 0.1 m
Radar Cross Section
Small (<0.1 m²)

Expand to show TLE details & history
Last TLE update: 1 day ago

TLE from 1 day ago
0 USA 40 R/B DEB
1 23360U 89061AG  26093.58017950  .00005237  00000-0  46856-2 0  9991
2 23360  56.9713 184.4909 3047724 109.8505 285.3149  8.76053038 64032
Epoch: 2026-04-03T13:55Z
TLE epoch observation values (Epoch: 2026-04-03T13:55:27.508Z)
Latitude
-0.00003°
Longitude
143.71399°
Altitude
3,675.907 km
Speed
6.262 km/s
True Right ascension
12h 17m 57s
True Declination
0° 00' 00"
Sunlit
Object was in full shadow at epoch
Visualization orbit readout
Latitude
Unknown
Longitude
Unknown
Altitude
Unknown
Speed
Unknown
Apparent Right ascension
Unknown
Apparent Declination
Unknown
Sunlit
N/A
Visualization observer readout
Local Sidereal Time
23:11:25
Azimuth
Unknown
Elevation
Unknown
Doppler factor
Unknown
Orbital elements
Apogee altitude
6,590.801 km
Perigee altitude
532.159 km
Semi-major axis
9,939.617 km
Eccentricity
0.30477
Inclination
56.9713°
RAAN
184.4909°
Arg. of periapsis
109.8505°
True anomaly
250.23342°
Mean anomaly
285.3149°
Eccentric anomaly
267.86485°
Mean motion
2.19022 °/min
Orbital period
164.37 mins
BSTAR
0.0046856
Loading maneuver chart data...
Computing Atmospheric mass density...
Loading historical data...
Loading historical data...
Loading historical data...
Loading historical data...
Loading historical data...
Loading historical data...
Loading historical data...

Documentation

Showing up to 5 results
|